^^
Paulen-Weather Station Historical Data
 
Daily Summary for April 10, 2020 Units:  Metric    English   Both
Daily Weekly Monthly Yearly Custom
  Current: High: Low: Average:
Temperature: 2 °C 5 °C 2 °C 3 °C
Dew Point: -3 °C -2 °C -4 °C -3.2 °C
Humidity: 71% 71% 58% 64%
Wind Speed: 10km/h 15km/h 5km/h 9.8km/h
Wind Gust: 11km/h 16km/h - -
WindNE - - SSE
Pressure: 1026.21 hPa 1026.48 hPa 1026.01 hPa -
Precipitation: 0 mm      
Historical Graphs
 
 
Tabular Data for April 10, 2020
Time Temperature Dew Point Pressure Wind Wind Speed Wind Gust Humidity Rainfall Rate (Hourly) solar
00:04 5 °C -3 °C 1026.08 hPa N 15 km/h 16 km/h 59% 0 mm 0 W/m2
00:09 5 °C -3 °C 1026.14 hPa N 13 km/h 16 km/h 58% 0 mm 0 W/m2
00:14 5 °C -2 °C 1026.21 hPa N 12 km/h 13 km/h 60% 0 mm 0 W/m2
00:19 5 °C -3 °C 1026.14 hPa N 13 km/h 13 km/h 59% 0 mm 0 W/m2
00:24 5 °C -2 °C 1026.14 hPa N 12 km/h 14 km/h 60% 0 mm 0 W/m2
00:29 5 °C -2 °C 1026.21 hPa N 13 km/h 13 km/h 60% 0 mm 0 W/m2
00:34 5 °C -3 °C 1026.18 hPa N 13 km/h 13 km/h 60% 0 mm 0 W/m2
00:39 4 °C -2 °C 1026.21 hPa N 13 km/h 14 km/h 60% 0 mm 0 W/m2
00:44 4 °C -2 °C 1026.21 hPa N 12 km/h 14 km/h 61% 0 mm 0 W/m2
00:49 4 °C -2 °C 1026.25 hPa N 13 km/h 13 km/h 60% 0 mm 0 W/m2
00:54 4 °C -2 °C 1026.25 hPa N 12 km/h 14 km/h 61% 0 mm 0 W/m2
00:59 4 °C -2 °C 1026.25 hPa N 12 km/h 13 km/h 61% 0 mm 0 W/m2
01:04 4 °C -2 °C 1026.38 hPa N 11 km/h 14 km/h 61% 0 mm 0 W/m2
01:09 4 °C -2 °C 1026.38 hPa N 10 km/h 13 km/h 61% 0 mm 0 W/m2
01:14 4 °C -3 °C 1026.45 hPa NNW 9 km/h 11 km/h 60% 0 mm 0 W/m2
01:19 4 °C -3 °C 1026.48 hPa NNW 7 km/h 10 km/h 59% 0 mm 0 W/m2
01:24 4 °C -3 °C 1026.41 hPa NNW 7 km/h 8 km/h 59% 0 mm 0 W/m2
01:29 4 °C -4 °C 1026.35 hPa NNW 8 km/h 8 km/h 58% 0 mm 0 W/m2
01:34 4 °C -4 °C 1026.38 hPa NNW 7 km/h 10 km/h 58% 0 mm 0 W/m2
01:39 4 °C -4 °C 1026.35 hPa N 9 km/h 9 km/h 59% 0 mm 0 W/m2
01:44 4 °C -3 °C 1026.25 hPa N 10 km/h 11 km/h 60% 0 mm 0 W/m2
01:49 4 °C -3 °C 1026.31 hPa NNW 7 km/h 11 km/h 60% 0 mm 0 W/m2
01:54 4 °C -4 °C 1026.25 hPa NNW 9 km/h 9 km/h 60% 0 mm 0 W/m2
01:59 3 °C -4 °C 1026.28 hPa NNW 5 km/h 11 km/h 60% 0 mm 0 W/m2
02:04 3 °C -4 °C 1026.31 hPa NNW 5 km/h 6 km/h 60% 0 mm 0 W/m2
02:09 3 °C -4 °C 1026.31 hPa NNW 6 km/h 6 km/h 61% 0 mm 0 W/m2
02:14 3 °C -4 °C 1026.25 hPa NNW 6 km/h 6 km/h 62% 0 mm 0 W/m2
02:19 3 °C -4 °C 1026.28 hPa NNW 6 km/h 6 km/h 62% 0 mm 0 W/m2
02:24 3 °C -4 °C 1026.28 hPa NNW 6 km/h 6 km/h 62% 0 mm 0 W/m2
02:29 3 °C -4 °C 1026.21 hPa NNW 6 km/h 6 km/h 62% 0 mm 0 W/m2
02:34 3 °C -4 °C 1026.18 hPa NNW 6 km/h 6 km/h 62% 0 mm 0 W/m2
02:39 3 °C -4 °C 1026.14 hPa NNW 7 km/h 8 km/h 62% 0 mm 0 W/m2
02:44 3 °C -3 °C 1026.21 hPa NNW 9 km/h 9 km/h 63% 0 mm 0 W/m2
02:49 3 °C -3 °C 1026.28 hPa NNW 9 km/h 11 km/h 63% 0 mm 0 W/m2
02:54 3 °C -3 °C 1026.35 hPa NNW 9 km/h 10 km/h 62% 0 mm 0 W/m2
02:59 3 °C -4 °C 1026.35 hPa N 10 km/h 11 km/h 61% 0 mm 0 W/m2
03:04 3 °C -4 °C 1026.38 hPa N 10 km/h 11 km/h 61% 0 mm 0 W/m2
03:09 3 °C -4 °C 1026.38 hPa NNW 12 km/h 13 km/h 61% 0 mm 0 W/m2
03:14 3 °C -4 °C 1026.41 hPa N 11 km/h 13 km/h 61% 0 mm 0 W/m2
03:19 3 °C -4 °C 1026.41 hPa N 12 km/h 13 km/h 61% 0 mm 0 W/m2
03:24 3 °C -4 °C 1026.38 hPa N 11 km/h 13 km/h 61% 0 mm 0 W/m2
03:29 3 °C -4 °C 1026.38 hPa N 10 km/h 11 km/h 62% 0 mm 0 W/m2
03:34 3 °C -4 °C 1026.35 hPa N 10 km/h 11 km/h 62% 0 mm 0 W/m2
03:39 3 °C -4 °C 1026.31 hPa N 11 km/h 11 km/h 63% 0 mm 0 W/m2
03:44 3 °C -3 °C 1026.31 hPa N 11 km/h 11 km/h 63% 0 mm 0 W/m2
03:49 3 °C -4 °C 1026.38 hPa N 9 km/h 11 km/h 64% 0 mm 0 W/m2
03:54 3 °C -4 °C 1026.38 hPa N 9 km/h 10 km/h 64% 0 mm 0 W/m2
03:59 2 °C -3 °C 1026.28 hPa N 10 km/h 10 km/h 65% 0 mm 0 W/m2
04:04 3 °C -3 °C 1026.28 hPa N 11 km/h 11 km/h 65% 0 mm 0 W/m2
04:09 3 °C -3 °C 1026.31 hPa N 11 km/h 11 km/h 66% 0 mm 0 W/m2
04:14 3 °C -3 °C 1026.28 hPa N 10 km/h 11 km/h 67% 0 mm 0 W/m2
04:19 3 °C -3 °C 1026.28 hPa NNE 11 km/h 13 km/h 67% 0 mm 0 W/m2
04:24 3 °C -3 °C 1026.25 hPa NNE 10 km/h 11 km/h 66% 0 mm 0 W/m2
04:29 3 °C -3 °C 1026.28 hPa NNE 10 km/h 11 km/h 66% 0 mm 0 W/m2
04:34 3 °C -3 °C 1026.28 hPa N 11 km/h 12 km/h 67% 0 mm 0 W/m2
04:39 2 °C -3 °C 1026.28 hPa NNE 12 km/h 13 km/h 66% 0 mm 0 W/m2
04:44 2 °C -3 °C 1026.25 hPa NNE 12 km/h 13 km/h 67% 0 mm 0 W/m2
04:49 2 °C -3 °C 1026.25 hPa NNE 12 km/h 13 km/h 68% 0 mm 0 W/m2
04:54 2 °C -3 °C 1026.21 hPa NNE 9 km/h 13 km/h 69% 0 mm 0 W/m2
04:59 2 °C -3 °C 1026.14 hPa NNE 8 km/h 10 km/h 69% 0 mm 0 W/m2
05:04 2 °C -3 °C 1026.08 hPa NNE 9 km/h 10 km/h 69% 0 mm 0 W/m2
05:09 2 °C -3 °C 1026.11 hPa N 9 km/h 10 km/h 68% 0 mm 0 W/m2
05:14 2 °C -3 °C 1026.08 hPa NNE 9 km/h 11 km/h 68% 0 mm 0 W/m2
05:19 2 °C -3 °C 1026.04 hPa NNE 10 km/h 10 km/h 68% 0 mm 0 W/m2
05:24 2 °C -3 °C 1026.04 hPa NNE 10 km/h 11 km/h 68% 0 mm 0 W/m2
05:29 2 °C -3 °C 1026.04 hPa N 11 km/h 11 km/h 69% 0 mm 0 W/m2
05:34 2 °C -3 °C 1026.01 hPa NNE 9 km/h 13 km/h 69% 0 mm 0 W/m2
05:39 2 °C -3 °C 1026.04 hPa NNE 11 km/h 11 km/h 69% 0 mm 0 W/m2
05:44 2 °C -3 °C 1026.01 hPa NNE 10 km/h 11 km/h 69% 0 mm 0 W/m2
05:49 2 °C -3 °C 1026.01 hPa N 11 km/h 13 km/h 69% 0 mm 0 W/m2
05:54 2 °C -3 °C 1026.04 hPa N 12 km/h 12 km/h 70% 0 mm 0 W/m2
05:59 2 °C -3 °C 1026.08 hPa N 13 km/h 13 km/h 68% 0 mm 0 W/m2
06:04 2 °C -3 °C 1026.11 hPa N 10 km/h 13 km/h 69% 0 mm 0 W/m2
06:09 2 °C -3 °C 1026.11 hPa N 10 km/h 11 km/h 69% 0 mm 0 W/m2
06:14 2 °C -3 °C 1026.08 hPa N 8 km/h 10 km/h 69% 0 mm 0 W/m2
06:19 2 °C -3 °C 1026.08 hPa NNE 9 km/h 10 km/h 69% 0 mm 0 W/m2
06:24 2 °C -3 °C 1026.08 hPa NNE 10 km/h 11 km/h 69% 0 mm 0 W/m2
06:29 2 °C -3 °C 1026.14 hPa NNE 8 km/h 11 km/h 69% 0 mm 0 W/m2
06:34 2 °C -3 °C 1026.14 hPa N 11 km/h 11 km/h 69% 0 mm 5 W/m2
06:39 2 °C -3 °C 1026.11 hPa NNE 9 km/h 13 km/h 69% 0 mm 5 W/m2
06:44 2 °C -3 °C 1026.11 hPa NNE 8 km/h 11 km/h 70% 0 mm 7 W/m2
06:49 2 °C -3 °C 1026.04 hPa NNE 8 km/h 10 km/h 69% 0 mm 11 W/m2
06:54 2 °C -3 °C 1026.08 hPa NNE 9 km/h 10 km/h 70% 0 mm 12 W/m2
06:59 2 °C -3 °C 1026.11 hPa NE 8 km/h 10 km/h 71% 0 mm 16 W/m2
07:04 2 °C -3 °C 1026.18 hPa NNE 8 km/h 10 km/h 71% 0 mm 19 W/m2
07:09 2 °C -3 °C 1026.18 hPa NNE 10 km/h 10 km/h 71% 0 mm 23 W/m2
07:14 2 °C -3 °C 1026.21 hPa NE 10 km/h 11 km/h 71% 0 mm 28 W/m2
Compliments of Weather Underground - 2 mb